Content
SEND FEEDBACK

Daily
Averages
Monthly
Summary
United States of America

HEBER SPRINGS, ARKANSAS


Home > North America > United States > Arkansas
Elevation: 527 feet     Latitude: 35 31N     Longitude: 092 00W

WEATHER
 
SELECT A DAY
Number of Records: 148,723;   Date Range: 5/17/99 - 8/12/14
 
SHARE

PRINT THIS DATA

[ ← Previous Day ]
WEATHER ALMANAC - JANUARY 31, 2013
[ Next Day → ]
[ °C ]   °F
Weather ElementAverageHighLow
Temperature40.9 °F57.9 °F (2:56 pm)25.2 °F (6:56 am)
Dewpoint25.5 °F30 °F (10:56 am)15.1 °F (10:56 pm)
Humidity58.9 %92 % (5:56 am)30 % (3:56 pm)
Barometer30.17 in30.40 in (10:56 pm)30.09 in (1:56 pm)
Wind Speed7 mph17.3 mph (10:56 pm)
Wind Gust23 mph (10:56 pm)
Weather ElementAverage
Visibility10 mi
Wind DirectionSSW (205.9 °)

Weather ElementTotal
Precipitation---
Heating Degree Days23.5 (Base 65)
Averaged from 22 records on January 31, 2013
WEATHER CONDITIONS BREAKOUT
WIND DIRECTION BREAKOUT
WEATHER BY HOUR - JANUARY 31, 2013
[ °C ]   °F
Local TimeTemperatureDewpointHumidityBarometerVisibilityWind DirectionWind SpeedGust SpeedPrecipitationEventsConditions
1:56 AM30.0 °F24.1 °F79 %30.11 in10.0 miWSW (240°)4.6 mphClear
2:56 AM29.1 °F24.1 °F81 %30.12 in10.0 miCalmClear
3:56 AM27.1 °F24.1 °F88 %30.11 in10.0 miCalmClear
4:56 AM27.1 °F24.1 °F88 %30.11 in10.0 miCalmClear
5:56 AM26.1 °F24.1 °F92 %30.14 in10.0 miSW (220°)3.5 mphClear
6:56 AM25.2 °F23.0 °F91 %30.17 in10.0 miCalmClear
7:56 AM29.1 °F26.1 °F88 %30.19 in10.0 miCalmClear
8:56 AM33.8 °F26.6 °F75 %30.17 in10.0 miCalmClear
9:56 AM39.9 °F29.1 °F65 %30.19 in10.0 miSSW (210°)4.6 mphClear
10:56 AM45.0 °F30.0 °F56 %30.18 in10.0 miSW (220°)6.9 mphClear
11:56 AM50.0 °F28.4 °F43 %30.13 in10.0 miWSW (240°)9.2 mphClear
12:56 PM54.0 °F28.0 °F37 %30.12 in10.0 miSW (230°)11.5 mph17.3 mphClear
1:56 PM56.8 °F27.1 °F32 %30.09 in10.0 miSW (220°)11.5 mphClear
2:56 PM57.9 °F27.1 °F31 %30.10 in10.0 miWNW (290°)11.5 mph17.3 mphClear
3:56 PM57.9 °F26.1 °F30 %30.11 in10.0 miWNW (300°)9.2 mph16.1 mphClear
4:56 PM54.9 °F27.1 °F34 %30.11 in10.0 miNW (310°)6.9 mphClear
5:56 PM53.6 °F24.8 °F33 %30.12 in10.0 miWNW (300°)5.8 mphClear
6:56 PM48.9 °F28.0 °F44 %30.21 in10.0 miNorth (360°)13.8 mphClear
7:56 PM45.0 °F28.0 °F52 %30.26 in10.0 miNorth (350°)11.5 mphScattered Clouds
8:56 PM38.8 °F26.1 °F60 %30.31 in10.0 miNNW (340°)12.7 mph18.4 mphMostly Cloudy
9:56 PM36.9 °F19.0 °F49 %30.35 in10.0 miNorth (350°)12.7 mph18.4 mphPartly Cloudy
10:56 PM32.9 °F15.1 °F48 %30.40 in10.0 miNorth (350°)17.3 mph23.0 mphScattered Clouds
Hourly data recorded from KSRC, located miles away from Heber Springs, Arkansas







STORIES FROM OUR PARTNERS